• en Belgique
  • Liste des pays
  • À 7 jours
  • Température de l'eau
  • Carte satellitaire
  • Carte météo
  • Widgets météo
  • user-avatar
    Se connecter

    Météo par heure à Canberra

    Ce jour, 21 Octobre, Samedi

    Heure Température Précipitation Vent Pression Humidité
    00:00 +7°C° 0 mm 2 m/s 714 mmHg 92%
    01:00 +5°C° 0 mm 2 m/s 714 mmHg 92%
    02:00 +5°C° 0 mm 2 m/s 713 mmHg 91%
    03:00 +4°C° 0 mm 2 m/s 713 mmHg 90%
    04:00 +3°C° 0 mm 2 m/s 713 mmHg 89%
    05:00 +6°C° 0 mm 1 m/s 713 mmHg 83%
    06:00 +7°C° 0 mm 1 m/s 713 mmHg 77%
    07:00 +9°C° 0 mm 1 m/s 713 mmHg 71%
    08:00 +12°C° 0 mm 1 m/s 713 mmHg 59%
    09:00 +15°C° 0 mm 1 m/s 713 mmHg 48%
    10:00 +19°C° 0 mm 1 m/s 713 mmHg 36%
    11:00 +20°C° 0 mm 1 m/s 713 mmHg 34%
    12:00 +22°C° 0 mm 1 m/s 712 mmHg 33%
    13:00 +23°C° 0 mm 1 m/s 712 mmHg 31%
    14:00 +21°C° 0 mm 2 m/s 711 mmHg 34%
    15:00 +21°C° 0 mm 2 m/s 710 mmHg 38%
    16:00 +20°C° 0 mm 3 m/s 710 mmHg 41%
    17:00 +17°C° 0 mm 2 m/s 710 mmHg 53%
    18:00 +15°C° 0 mm 2 m/s 709 mmHg 66%
    19:00 +12°C° 0 mm 2 m/s 709 mmHg 78%
    20:00 +10°C° 0 mm 2 m/s 709 mmHg 83%
    21:00 +10°C° 0 mm 2 m/s 709 mmHg 88%
    22:00 +9°C° 0 mm 2 m/s 710 mmHg 92%
    23:00 +10°C° 0 mm 1 m/s 709 mmHg 93%

    Demain, 22 Octobre, Dimanche

    Heure Température Précipitation Vent Pression Humidité
    00:00 +9°C° 0 mm 1 m/s 709 mmHg 94%
    01:00 +9°C° 0 mm 1 m/s 708 mmHg 95%
    02:00 +9°C° 0 mm 1 m/s 708 mmHg 95%
    03:00 +9°C° 0 mm 1 m/s 708 mmHg 96%
    04:00 +8°C° 0 mm 0 m/s 708 mmHg 96%
    05:00 +8°C° 0 mm 0 m/s 708 mmHg 94%
    06:00 +9°C° 0 mm 0 m/s 708 mmHg 91%
    07:00 +10°C° 0 mm 0 m/s 708 mmHg 88%
    08:00 +12°C° 0 mm 0 m/s 708 mmHg 79%
    09:00 +14°C° 0 mm 1 m/s 708 mmHg 70%
    10:00 +16°C° 0 mm 1 m/s 708 mmHg 62%
    11:00 +16°C° 0,1 mm 1 m/s 707 mmHg 60%
    12:00 +18°C° 0,1 mm 1 m/s 707 mmHg 58%
    13:00 +17°C° 0,1 mm 2 m/s 707 mmHg 56%
    14:00 +17°C° 0,3 mm 2 m/s 707 mmHg 59%
    15:00 +16°C° 0,3 mm 2 m/s 706 mmHg 63%
    16:00 +16°C° 0,3 mm 2 m/s 706 mmHg 66%
    17:00 +14°C° 0,3 mm 2 m/s 706 mmHg 73%
    18:00 +12°C° 0,3 mm 1 m/s 707 mmHg 79%
    19:00 +11°C° 0,3 mm 1 m/s 707 mmHg 86%
    20:00 +10°C° 0 mm 1 m/s 707 mmHg 89%
    21:00 +9°C° 0 mm 1 m/s 708 mmHg 92%
    22:00 +8°C° 0 mm 1 m/s 708 mmHg 94%
    23:00 +8°C° 0 mm 1 m/s 708 mmHg 95%

    Après-demain, 23 Octobre, Lundi

    Heure Température Précipitation Vent Pression Humidité
    00:00 +7°C° 0 mm 1 m/s 708 mmHg 95%
    01:00 +7°C° 0 mm 1 m/s 708 mmHg 95%
    02:00 +7°C° 0 mm 1 m/s 708 mmHg 94%
    03:00 +6°C° 0 mm 1 m/s 708 mmHg 94%
    04:00 +6°C° 0 mm 1 m/s 708 mmHg 94%
    05:00 +8°C° 0 mm 1 m/s 708 mmHg 88%
    06:00 +9°C° 0 mm 1 m/s 709 mmHg 83%
    07:00 +10°C° 0 mm 0 m/s 710 mmHg 77%
    08:00 +14°C° 0 mm 1 m/s 710 mmHg 66%
    09:00 +18°C° 0 mm 1 m/s 710 mmHg 54%
    10:00 +21°C° 0 mm 1 m/s 710 mmHg 43%
    11:00 +22°C° 0 mm 1 m/s 710 mmHg 40%
    12:00 +23°C° 0 mm 2 m/s 710 mmHg 38%
    13:00 +23°C° 0 mm 2 m/s 710 mmHg 36%
    14:00 +23°C° 0 mm 2 m/s 709 mmHg 38%
    15:00 +22°C° 0 mm 3 m/s 709 mmHg 41%
    16:00 +21°C° 0 mm 3 m/s 709 mmHg 44%
    17:00 +19°C° 0 mm 2 m/s 709 mmHg 54%
    18:00 +16°C° 0 mm 2 m/s 709 mmHg 64%
    19:00 +14°C° 0 mm 1 m/s 709 mmHg 74%
    20:00 +13°C° 0 mm 1 m/s 709 mmHg 79%
    21:00 +12°C° 0 mm 1 m/s 709 mmHg 84%
    22:00 +11°C° 0 mm 1 m/s 710 mmHg 88%
    23:00 +10°C° 0 mm 1 m/s 709 mmHg 89%

    24 Octobre, Mardi

    Heure Température Précipitation Vent Pression Humidité
    00:00 +10°C° 0 mm 1 m/s 709 mmHg 89%
    01:00 +10°C° 0 mm 1 m/s 709 mmHg 90%
    02:00 +10°C° 0 mm 1 m/s 709 mmHg 88%
    03:00 +10°C° 0 mm 1 m/s 709 mmHg 87%
    04:00 +10°C° 0 mm 1 m/s 709 mmHg 85%
    05:00 +11°C° 0 mm 1 m/s 709 mmHg 80%
    06:00 +12°C° 0 mm 1 m/s 709 mmHg 74%
    07:00 +14°C° 0 mm 1 m/s 710 mmHg 69%
    08:00 +16°C° 0 mm 2 m/s 710 mmHg 60%
    09:00 +18°C° 0 mm 3 m/s 710 mmHg 52%
    10:00 +21°C° 0 mm 4 m/s 710 mmHg 43%
    11:00 +21°C° 0 mm 4 m/s 710 mmHg 41%
    12:00 +22°C° 0 mm 4 m/s 710 mmHg 40%
    13:00 +23°C° 0 mm 4 m/s 709 mmHg 38%
    14:00 +22°C° 0 mm 4 m/s 709 mmHg 40%
    15:00 +22°C° 0 mm 3 m/s 708 mmHg 42%
    16:00 +22°C° 0 mm 3 m/s 708 mmHg 44%
    17:00 +20°C° 0 mm 2 m/s 708 mmHg 51%
    18:00 +18°C° 0 mm 2 m/s 709 mmHg 59%
    19:00 +16°C° 0 mm 1 m/s 709 mmHg 66%
    20:00 +15°C° 0 mm 1 m/s 709 mmHg 71%
    21:00 +14°C° 0 mm 1 m/s 709 mmHg 76%
    22:00 +14°C° 0 mm 1 m/s 709 mmHg 81%
    23:00 +13°C° 0 mm 1 m/s 709 mmHg 85%

    25 Octobre, Mercredi

    Heure Température Précipitation Vent Pression Humidité
    00:00 +13°C° 0 mm 1 m/s 709 mmHg 89%
    01:00 +13°C° 0 mm 1 m/s 708 mmHg 93%
    02:00 +12°C° 0,1 mm 1 m/s 708 mmHg 94%
    03:00 +12°C° 0,1 mm 1 m/s 708 mmHg 95%
    04:00 +12°C° 0,1 mm 1 m/s 708 mmHg 96%
    05:00 +13°C° 0 mm 1 m/s 708 mmHg 93%
    06:00 +14°C° 0 mm 1 m/s 708 mmHg 90%
    07:00 +14°C° 0 mm 1 m/s 708 mmHg 87%
    08:00 +18°C° 0 mm 1 m/s 708 mmHg 76%
    09:00 +20°C° 0 mm 1 m/s 708 mmHg 65%
    10:00 +22°C° 0 mm 1 m/s 708 mmHg 53%
    11:00 +20°C° 0,3 mm 2 m/s 708 mmHg 60%
    12:00 +19°C° 0,3 mm 2 m/s 707 mmHg 66%
    13:00 +19°C° 0,3 mm 3 m/s 706 mmHg 73%
    14:00 +20°C° 0,1 mm 2 m/s 706 mmHg 66%
    15:00 +21°C° 0,1 mm 2 m/s 706 mmHg 59%
    16:00 +23°C° 0,1 mm 2 m/s 705 mmHg 52%
    17:00 +20°C° 1 mm 2 m/s 705 mmHg 65%
    18:00 +18°C° 1 mm 1 m/s 704 mmHg 79%
    19:00 +15°C° 1 mm 1 m/s 704 mmHg 92%
    20:00 +14°C° 0,2 mm 2 m/s 703 mmHg 93%
    21:00 +14°C° 0,2 mm 2 m/s 703 mmHg 95%
    22:00 +13°C° 0,2 mm 2 m/s 703 mmHg 96%
    23:00 +13°C° 0,6 mm 2 m/s 702 mmHg 97%

    26 Octobre, Jeudi

    Heure Température Précipitation Vent Pression Humidité
    00:00 +13°C° 0,6 mm 2 m/s 702 mmHg 97%
    01:00 +13°C° 0,6 mm 2 m/s 701 mmHg 98%
    02:00 +13°C° 0,2 mm 2 m/s 701 mmHg 98%
    03:00 +13°C° 0,2 mm 2 m/s 701 mmHg 98%
    04:00 +13°C° 0,2 mm 1 m/s 700 mmHg 98%
    05:00 +14°C° 0 mm 1 m/s 700 mmHg 96%
    06:00 +14°C° 0 mm 1 m/s 701 mmHg 94%
    07:00 +15°C° 0 mm 1 m/s 701 mmHg 93%
    08:00 +18°C° 0,1 mm 1 m/s 701 mmHg 83%
    09:00 +20°C° 0,1 mm 1 m/s 702 mmHg 73%
    10:00 +20°C° 0,1 mm 2 m/s 702 mmHg 63%
    11:00 +20°C° 1,3 mm 2 m/s 702 mmHg 68%
    12:00 +20°C° 1,3 mm 3 m/s 702 mmHg 73%
    13:00 +19°C° 1,3 mm 3 m/s 702 mmHg 78%
    14:00 +19°C° 1,2 mm 3 m/s 702 mmHg 77%
    15:00 +18°C° 1,2 mm 3 m/s 703 mmHg 76%
    16:00 +18°C° 1,2 mm 3 m/s 703 mmHg 75%
    17:00 +16°C° 0,3 mm 3 m/s 703 mmHg 78%
    18:00 +15°C° 0,3 mm 2 m/s 704 mmHg 81%
    19:00 +13°C° 0,3 mm 2 m/s 704 mmHg 83%
    20:00 +12°C° 0 mm 2 m/s 705 mmHg 82%
    21:00 +10°C° 0 mm 2 m/s 705 mmHg 81%
    22:00 +9°C° 0 mm 2 m/s 706 mmHg 79%
    23:00 +8°C° 0 mm 2 m/s 706 mmHg 76%
    Voir plus